Weather History for Marrakech, Morocco

Change the Weather History Date:

Tuesday, December 3, 2013

  Actual Average Record
Temperature  
Mean Temperature 56 °F -  
Max Temperature 71 °F 64 °F 82 °F (1997)
Min Temperature 41 °F 43 °F 33 °F (2008)
Degree Days  
Heating Degree Days 9    
Growing Degree Days 6 (Base 50)    
Moisture  
Dew Point 34 °F    
Average Humidity 47    
Maximum Humidity 81    
Minimum Humidity 12    
Precipitation  
Precipitation 0.00 in 0.04 in - ()
Sea Level Pressure  
Sea Level Pressure 30.07 in    
Wind  
Wind Speed 4 mph ()    
Max Wind Speed 9 mph    
Max Gust Speed -    
Visibility 5.9 miles    
Events      
Averages and records for this station are not official NWS values.
T = Trace of Precipitation, MM = Missing Value Source: Averaged Metar Reports

Daily Weather History Graph

Daily Weather History Graph

Search for Another Location

Airport:

Trip Planner

Search our weather history database for the weather conditions in past years. The results will help you decide how hot, cold, wet, or windy it might be!

Date:

Astronomy

Dec. 03, 2013 Rise Set
Actual Time 7:15 AM WET 5:28 PM WET
Civil Twilight 6:48 AM WET 5:54 PM WET
Nautical Twilight 6:18 AM WET 6:25 PM WET
Astronomical Twilight 5:49 AM WET 6:54 PM WET
Moon 7:32 AM WET (12/3) 6:16 PM WET (12/3)
Length of Visible Light 11h 05m
Length of Day
10h 12m
New Moon, 0% of the Moon is Illuminated
Dec 3
New Moon
Dec 9
First Quarter
Dec 17
Full
Dec 25
Last Quarter
Jan 1
New

Hourly Weather History & Observations

Time (WET) Temp. Windchill Dew Point Humidity Pressure Visibility Wind Dir Wind Speed Gust Speed Precip Events Conditions
12:00 AM 49 °F - 38 °F 55% 30.06 in 4 mi East 3.5 mph - -  
12:00 AM 48.2 °F - 37.4 °F 66% 30.04 in 4.3 mi East 3.5 mph - N/A   Unknown
12:30 AM 48.2 °F - 37.4 °F 66% 30.04 in 5.6 mi ESE 2.3 mph - N/A   Unknown
1:00 AM 48.2 °F - 37.4 °F 66% 30.04 in 5.6 mi Calm Calm - N/A   Unknown
1:30 AM 48.2 °F - 37.4 °F 66% 30.04 in 5.6 mi ENE 1.2 mph - N/A   Unknown
2:00 AM 46.4 °F - 37.4 °F 71% 30.04 in 5.6 mi ENE 2.3 mph - N/A   Unknown
2:30 AM 44.6 °F 42.2 °F 37.4 °F 76% 30.04 in - East 4.6 mph - N/A   Clear
3:00 AM 45 °F - 37 °F 66% 30.07 in 6 mi East 4.6 mph - -  
3:00 AM 44.6 °F 43.1 °F 37.4 °F 76% 30.04 in 5.6 mi East 3.5 mph - N/A   Unknown
3:30 AM 44.6 °F 42.2 °F 37.4 °F 76% 30.04 in 5.6 mi East 4.6 mph - N/A   Unknown
4:00 AM 44.6 °F 43.1 °F 37.4 °F 76% 30.04 in - East 3.5 mph - N/A   Clear
4:30 AM 42.8 °F 41.1 °F 37.4 °F 81% 30.04 in - East 3.5 mph - N/A   Clear
5:00 AM 42.8 °F 41.1 °F 35.6 °F 76% 30.04 in - East 3.5 mph - N/A   Clear
5:30 AM 42.8 °F - 37.4 °F 81% 30.04 in - ENE 2.3 mph - N/A   Clear
6:00 AM 44 °F - 37 °F 67% 30.08 in 6 mi ESE 3.5 mph - -  
6:00 AM 44.6 °F 42.2 °F 37.4 °F 76% 30.04 in - East 4.6 mph - N/A   Clear
6:30 AM 42.8 °F 40.1 °F 35.6 °F 76% 30.04 in - East 4.6 mph - N/A   Clear
7:00 AM 41.0 °F 39.0 °F 35.6 °F 81% 30.06 in - East 3.5 mph - N/A   Clear
7:30 AM 41.0 °F 37.1 °F 35.6 °F 81% 30.06 in - East 5.8 mph - N/A   Clear
8:00 AM 42.8 °F 41.1 °F 35.6 °F 76% 30.06 in - ENE 3.5 mph - N/A   Clear
8:30 AM 46.4 °F 44.3 °F 37.4 °F 71% 30.09 in 5.6 mi East 4.6 mph - N/A   Unknown
9:00 AM 49 °F - 36 °F 50% 30.12 in 6 mi ENE 4.6 mph - -  
9:00 AM 50.0 °F - 35.6 °F 58% 30.09 in 5.6 mi ENE 4.6 mph - N/A   Unknown
9:30 AM 53.6 °F - 35.6 °F 51% 30.09 in 5.0 mi ESE 4.6 mph - N/A   Unknown
10:00 AM 57.2 °F - 35.6 °F 44% 30.09 in - ENE 4.6 mph - N/A   Clear
10:30 AM 59.0 °F - 35.6 °F 42% 30.09 in - Variable 2.3 mph - N/A   Clear
11:00 AM 60.8 °F - 35.6 °F 39% 30.09 in - NNE 3.5 mph - N/A   Clear
11:30 AM 62.6 °F - 32.0 °F 32% 30.09 in - NE 4.6 mph - N/A   Clear
12:00 PM 65 °F - 33 °F 19% 30.05 in 6 mi ENE 5.8 mph - -   Clear
12:00 PM 64.4 °F - 30.2 °F 28% 30.09 in - NE 4.6 mph - N/A   Clear
12:30 PM 66.2 °F - 33.8 °F 30% 30.06 in - NE 5.8 mph - N/A   Clear
1:00 PM 66.2 °F - 32.0 °F 28% 30.06 in - NE 8.1 mph - N/A   Clear
1:30 PM 68.0 °F - 32.0 °F 26% 30.06 in - ENE 6.9 mph - N/A   Clear
2:00 PM 69.8 °F - 32.0 °F 25% 30.04 in - ENE 9.2 mph - N/A   Clear
2:30 PM 69.8 °F - 30.2 °F 23% 30.04 in 6.2 mi North 5.8 mph - N/A   Partly Cloudy
3:00 PM 71 °F - 29 °F 12% 30.00 in 6 mi NE 5.8 mph - -   Scattered Clouds
3:00 PM 71.6 °F - 28.4 °F 20% 30.04 in 6.2 mi ENE 4.6 mph - N/A   Partly Cloudy
3:30 PM 69.8 °F - 28.4 °F 21% 30.04 in 6.2 mi NNW 3.5 mph - N/A   Partly Cloudy
4:00 PM 69.8 °F - 28.4 °F 21% 30.06 in 6.2 mi North 3.5 mph - N/A   Scattered Clouds
4:30 PM 69.8 °F - 26.6 °F 20% 30.06 in 6.2 mi Calm Calm - N/A   Scattered Clouds
5:00 PM 68.0 °F - 32.0 °F 26% 30.06 in 6.2 mi NNE 6.9 mph - N/A   Scattered Clouds
5:30 PM 66.2 °F - 30.2 °F 26% 30.06 in 6.2 mi NE 8.1 mph - N/A   Mostly Cloudy
6:00 PM 65 °F - 31 °F 17% 30.05 in 6 mi NE 6.9 mph - -   Mostly Cloudy
6:00 PM 66.2 °F - 30.2 °F 26% 30.06 in 6.2 mi NE 6.9 mph - N/A   Mostly Cloudy
6:30 PM 64.4 °F - 32.0 °F 30% 30.09 in 6.2 mi NE 6.9 mph - N/A   Mostly Cloudy
7:00 PM 64.4 °F - 30.2 °F 28% 30.09 in 6.2 mi NE 5.8 mph - N/A   Mostly Cloudy
7:30 PM 62.6 °F - 30.2 °F 30% 30.09 in 6.2 mi ENE 6.9 mph - N/A   Mostly Cloudy
8:00 PM 62.6 °F - 30.2 °F 30% 30.09 in 6.2 mi ENE 6.9 mph - N/A   Mostly Cloudy
8:30 PM 60.8 °F - 32.0 °F 34% 30.12 in 6.2 mi East 4.6 mph - N/A   Mostly Cloudy
9:00 PM 60 °F - 33 °F 25% 30.10 in 6 mi ESE 4.6 mph - -   Mostly Cloudy
9:00 PM 60.8 °F - 33.8 °F 36% 30.12 in 6.2 mi ESE 4.6 mph - N/A   Mostly Cloudy
9:30 PM 60.8 °F - 32.0 °F 34% 30.12 in 6.2 mi ESE 5.8 mph - N/A   Mostly Cloudy
10:00 PM 59.0 °F - 33.8 °F 39% 30.12 in 6.2 mi ESE 3.5 mph - N/A   Mostly Cloudy
10:30 PM 59.0 °F - 33.8 °F 39% 30.12 in 6.2 mi Variable 1.2 mph - N/A   Mostly Cloudy
11:00 PM 55.4 °F - 37.4 °F 51% 30.12 in 6.2 mi West 4.6 mph - N/A   Mostly Cloudy
11:30 PM 53.6 °F - 37.4 °F 54% 30.12 in 6.2 mi West 4.6 mph - N/A   Mostly Cloudy